Latest Weather Observations for Hindmarsh Island

IDS60801

Issued at 5:32 pm CDT Monday 30 March 2015 (issued every 30 minutes, with the page automatically refreshed every 10 minutes)

About weather observations | Map of weather stations | Latest weather observations for SA | Other Formats
Station Details ID: 023894 Name: HINDMARSH ISLAND AWS Lat: -35.52 Lon: 138.82 Height: 11.0 m
Data from the previous 72 hours. | See also: Recent months at Hindmarsh Island
Date/Time
CDT
Temp
°C
App
Temp
°C
Dew
Point
Rel
Hum
%
Delta-T
°C
Wind Press
QNH
hPa
Press
MSL
hPa
Rain
since 9 am
mm
Dir
 
Spd
km/h
Gust
km/h
Spd
kts
Gust
kts
30/05:30pm 20.3 17.4 14.0 67 3.6 SSE 22 28 12 15 1024.0 - 0.2
30/05:00pm 20.2 16.2 12.9 63 4.1 S 26 30 14 16 1023.9 - 0.2
30/04:30pm 20.6 16.3 14.5 68 3.6 SSE 30 32 16 17 1023.8 - 0.2
30/04:00pm 21.1 17.5 14.3 65 4.0 SSE 26 32 14 17 1023.7 - 0.2
30/03:30pm 21.8 18.0 12.4 55 5.3 SSE 24 26 13 14 1023.6 - 0.2
30/03:00pm 22.5 19.4 13.3 56 5.3 SSE 22 26 12 14 1023.9 1023.8 0.2
30/02:30pm 22.5 18.9 11.9 51 6.0 SSE 22 24 12 13 1024.0 - 0.2
30/02:00pm 22.4 19.6 12.6 54 5.6 SSE 19 22 10 12 1024.2 - 0.2
30/01:30pm 22.3 20.0 14.7 62 4.5 S 20 22 11 12 1024.6 - 0.2
30/01:00pm 22.7 21.0 14.8 61 4.7 S 17 19 9 10 1024.9 - 0.2
30/12:30pm 21.7 19.8 13.1 58 4.9 S 15 17 8 9 1025.1 - 0.2
30/12:00pm 22.6 21.8 12.8 54 5.6 N 9 15 5 8 1025.4 1025.3 0.2
30/11:30am 21.2 19.5 12.3 57 5.0 N 13 19 7 10 1025.7 - 0.2
30/11:00am 20.3 18.8 13.0 63 4.1 NNE 13 17 7 9 1025.9 - 0.2
30/10:30am 19.7 18.5 12.9 65 3.8 NNE 11 15 6 8 1026.0 - 0.0
30/10:00am 18.6 17.7 13.7 73 2.8 N 11 15 6 8 1025.9 - 0.0
30/09:30am 18.1 17.9 14.6 80 2.0 N 9 11 5 6 1025.7 - 0.0
30/09:00am 16.4 16.3 13.9 85 1.4 N 7 9 4 5 1025.4 1025.3 0.0
30/08:30am 15.0 14.8 13.0 88 1.1 N 6 7 3 4 1025.1 - 0.0
30/08:00am 14.1 13.1 12.3 89 1.0 N 9 11 5 6 1024.8 - 0.0
30/07:30am 13.7 12.9 11.7 88 1.1 N 7 9 4 5 1024.3 - 0.0
30/07:00am 14.0 13.3 12.0 88 1.1 NNW 7 9 4 5 1024.0 - 0.0
30/06:30am 13.9 14.5 11.9 88 1.1 CALM 0 7 0 4 1023.7 - 0.0
30/06:00am 14.1 13.0 12.1 88 1.1 NNW 9 11 5 6 1023.5 1023.4 0.0
30/05:30am 13.8 12.7 11.8 88 1.1 NNW 9 9 5 5 1023.3 - 0.0
30/05:00am 13.6 12.0 11.7 88 1.0 N 11 11 6 6 1023.2 - 0.0
30/04:30am 13.5 13.6 11.4 87 1.1 NNW 2 13 1 7 1023.0 - 0.0
30/04:00am 14.3 14.6 12.2 87 1.1 NNW 2 4 1 2 1023.0 - 0.0
30/03:30am 14.2 13.5 12.1 87 1.1 N 7 11 4 6 1023.2 - 0.0
30/03:00am 14.1 13.0 12.0 87 1.1 NNW 9 11 5 6 1023.4 1023.3 0.0
30/02:30am 14.3 13.5 11.8 85 1.3 NW 7 7 4 4 1023.4 - 0.0
30/02:00am 14.8 14.2 12.3 85 1.4 NNW 7 9 4 5 1023.4 - 0.0
30/01:30am 15.0 14.1 12.5 85 1.4 NW 9 11 5 6 1023.5 - 0.0
30/01:00am 15.2 14.3 12.5 84 1.5 NW 9 9 5 5 1023.7 - 0.0
30/12:30am 15.6 14.8 12.9 84 1.5 W 9 9 5 5 1023.7 - 0.0
30/12:00am 15.9 16.1 13.0 83 1.6 W 4 7 2 4 1023.6 1023.5 0.0
 
Date/Time
CDT
Temp
°C
App
Temp
°C
Dew
Point
Rel
Hum
%
Delta-T
°C
Wind Press
QNH
hPa
Press
MSL
hPa
Rain
since 9 am
mm
Dir
 
Spd
km/h
Gust
km/h
Spd
kts
Gust
kts
29/11:30pm 16.7 16.4 13.4 81 1.9 S 7 9 4 5 1023.7 - 0.0
29/11:00pm 17.2 16.7 13.7 80 2.0 S 9 9 5 5 1023.8 - 0.0
29/10:30pm 17.4 17.2 13.5 78 2.2 S 7 9 4 5 1023.8 - 0.0
29/10:00pm 17.3 16.8 13.8 80 2.0 S 9 11 5 6 1023.7 - 0.0
29/09:30pm 17.3 16.8 13.8 80 2.0 SSW 9 9 5 5 1023.5 - 0.0
29/09:00pm 17.4 16.9 13.7 79 2.1 S 9 11 5 6 1023.2 1023.1 0.0
29/08:30pm 18.0 17.8 13.5 75 2.5 S 7 9 4 5 1023.0 - 0.0
29/08:00pm 18.6 17.9 13.2 71 3.1 S 9 11 5 6 1022.7 - 0.0
29/07:30pm 18.7 18.2 12.7 68 3.4 SSE 7 9 4 5 1022.3 - 0.0
29/07:00pm 19.0 17.6 12.3 65 3.7 SSE 11 13 6 7 1022.2 - 0.0
29/06:30pm 19.3 17.8 11.8 62 4.1 SSE 11 13 6 7 1022.0 - 0.0
29/06:00pm 19.5 17.1 11.3 59 4.5 SSE 15 17 8 9 1021.8 1021.7 0.0
29/05:30pm 20.8 18.4 11.4 55 5.2 SSE 15 17 8 9 1021.6 - 0.0
29/05:00pm 20.2 17.7 11.1 56 5.0 SSE 15 19 8 10 1021.5 - 0.0
29/04:30pm 20.5 18.6 11.7 57 4.9 S 13 17 7 9 1021.4 - 0.0
29/04:00pm 20.7 17.8 11.1 54 5.3 S 17 20 9 11 1021.3 - 0.0
29/03:30pm 21.3 18.9 10.2 49 6.0 SSE 13 17 7 9 1021.4 - 0.0
29/03:00pm 21.7 18.1 9.9 47 6.4 S 19 24 10 13 1021.5 1021.4 0.0
29/02:30pm 22.5 18.9 10.0 45 6.8 S 19 22 10 12 1021.6 - 0.0
29/02:00pm 21.8 18.4 10.6 49 6.1 S 19 24 10 13 1021.8 - 0.0
29/01:30pm 22.1 19.0 10.3 47 6.4 SSE 17 19 9 10 1022.1 - 0.0
29/01:00pm 21.4 18.4 10.6 50 5.9 SSE 17 20 9 11 1022.3 - 0.0
29/12:30pm 21.4 19.7 11.1 52 5.7 SSE 11 13 6 7 1022.5 - 0.0
29/12:00pm 20.7 18.7 10.2 51 5.7 SSE 11 11 6 6 1022.7 1022.6 0.0
29/11:30am 20.5 19.5 10.9 54 5.3 SSE 7 9 4 5 1022.9 - 0.0
29/11:00am 19.5 18.3 10.2 55 5.0 NNE 7 9 4 5 1023.1 - 0.0
29/10:30am 18.4 16.4 10.3 59 4.3 N 11 13 6 7 1023.2 - 0.0
29/10:00am 17.9 15.9 10.0 60 4.2 NNE 11 13 6 7 1023.3 - 0.0
29/09:30am 17.2 15.5 9.9 62 3.8 N 9 11 5 6 1023.2 - 0.0
29/09:00am 16.1 14.4 9.8 66 3.3 N 9 15 5 8 1022.9 1022.8 0.0
29/08:30am 13.5 12.1 9.6 77 2.0 NNW 7 11 4 6 1022.7 - 0.0
29/08:00am 12.5 10.5 8.8 78 1.8 N 9 11 5 6 1022.2 - 0.0
29/07:30am 12.8 11.2 8.9 77 2.0 NNW 7 11 4 6 1022.0 - 0.0
29/07:00am 12.5 10.6 9.0 79 1.8 N 9 13 5 7 1021.6 - 0.0
29/06:30am 12.1 9.4 8.8 80 1.6 N 13 15 7 8 1021.4 - 0.0
29/06:00am 12.3 9.9 8.8 79 1.7 N 11 13 6 7 1021.0 1020.9 0.0
29/05:30am 12.8 11.1 10.0 83 1.4 N 9 11 5 6 1020.8 - 0.0
29/05:00am 12.8 10.3 9.6 81 1.6 N 13 17 7 9 1020.6 - 0.0
29/04:30am 12.5 10.3 9.5 82 1.5 N 11 13 6 7 1020.5 - 0.0
29/04:00am 12.3 10.1 9.3 82 1.5 N 11 13 6 7 1020.5 - 0.0
29/03:30am 12.8 11.5 9.8 82 1.5 NNW 7 11 4 6 1020.8 - 0.0
29/03:00am 12.5 11.1 9.5 82 1.5 NE 7 9 4 5 1020.8 1020.7 0.0
29/02:30am 13.1 12.8 10.1 82 1.5 N 2 7 1 4 1021.2 - 0.0
29/02:00am 13.3 13.1 10.3 82 1.6 N 2 7 1 4 1021.4 - 0.0
29/01:30am 13.3 11.8 10.5 83 1.5 NNW 9 13 5 7 1021.7 - 0.0
29/01:00am 13.2 11.6 10.2 82 1.6 NNW 9 15 5 8 1021.6 - 0.0
29/12:30am 13.2 11.3 10.4 83 1.5 N 11 13 6 7 1021.6 - 0.0
29/12:00am 13.3 11.0 10.5 83 1.5 N 13 17 7 9 1021.7 1021.6 0.0
 
Date/Time
CDT
Temp
°C
App
Temp
°C
Dew
Point
Rel
Hum
%
Delta-T
°C
Wind Press
QNH
hPa
Press
MSL
hPa
Rain
since 9 am
mm
Dir
 
Spd
km/h
Gust
km/h
Spd
kts
Gust
kts
28/11:30pm 13.4 11.5 10.6 83 1.5 N 11 13 6 7 1021.8 - 0.0
28/11:00pm 13.8 12.0 10.8 82 1.6 N 11 11 6 6 1022.0 - 0.0
28/10:30pm 14.0 12.5 10.4 79 1.9 N 9 11 5 6 1022.3 - 0.0
28/10:00pm 14.7 13.2 10.7 77 2.1 NNW 9 11 5 6 1022.3 - 0.0
28/09:30pm 15.6 14.8 11.2 75 2.4 SW 6 7 3 4 1022.1 - 0.0
28/09:00pm 16.0 15.2 11.6 75 2.4 S 7 7 4 4 1021.8 1021.7 0.0
28/08:30pm 16.1 14.9 11.5 74 2.5 S 9 11 5 6 1021.7 - 0.0
28/08:00pm 16.1 14.5 11.5 74 2.5 S 11 13 6 7 1021.7 - 0.0
28/07:30pm 16.5 14.8 11.2 71 2.9 S 11 13 6 7 1021.5 - 0.0
28/07:00pm 17.1 14.7 11.4 69 3.1 S 15 19 8 10 1021.3 - 0.0
28/06:30pm 17.4 14.5 11.0 66 3.4 S 17 20 9 11 1021.0 - 0.0
28/06:00pm 17.6 14.7 10.9 65 3.6 S 17 20 9 11 1020.8 1020.7 0.0
28/05:30pm 18.0 14.5 10.9 63 3.8 S 20 22 11 12 1020.9 - 0.0
28/05:00pm 19.0 15.1 10.8 59 4.4 S 22 26 12 14 1020.9 - 0.0
28/04:30pm 19.5 15.7 11.3 59 4.5 S 22 26 12 14 1021.3 - 0.0
28/04:00pm 19.9 16.3 11.7 59 4.5 S 22 26 12 14 1021.5 - 0.0
28/03:30pm 20.3 16.9 11.2 56 5.0 S 20 24 11 13 1021.7 - 0.0
28/03:00pm 20.4 16.0 10.5 53 5.4 S 24 28 13 15 1022.0 1021.9 0.0
28/02:30pm 20.4 16.6 11.3 56 5.0 SSE 22 28 12 15 1022.2 - 0.0
28/02:00pm 20.6 17.2 10.7 53 5.4 SE 19 24 10 13 1022.6 - 0.0
28/01:30pm 20.6 18.1 11.2 55 5.2 SE 15 20 8 11 1023.0 - 0.0
28/01:00pm 19.6 17.4 9.5 52 5.4 NNE 11 17 6 9 1023.7 - 0.0
28/12:30pm 19.3 16.8 9.8 54 5.1 NNE 13 20 7 11 1024.2 - 0.0
28/12:00pm 18.0 14.7 9.4 57 4.5 N 17 20 9 11 1024.6 1024.5 0.0
28/11:30am 17.8 14.0 9.7 59 4.3 NNE 20 26 11 14 1024.9 - 0.0
28/11:00am 16.9 13.2 9.3 61 4.0 NNE 19 26 10 14 1025.5 - 0.0
28/10:30am 16.1 12.4 9.5 65 3.4 NNE 19 24 10 13 1025.7 - 0.0
28/10:00am 15.5 12.0 10.1 70 2.8 NNE 19 24 10 13 1026.0 - 0.0
28/09:30am 14.6 11.6 10.6 77 2.1 N 17 24 9 13 1026.1 - 0.0
28/09:00am 13.1 10.0 10.3 83 1.4 N 17 22 9 12 1025.9 1025.8 0.0
28/08:30am 12.8 10.5 10.3 85 1.3 N 13 17 7 9 1025.7 - 0.0
28/08:00am 11.9 9.0 9.8 87 1.1 N 15 17 8 9 1025.7 - 0.0
28/07:30am 11.5 8.9 9.4 87 1.1 N 13 15 7 8 1025.5 - 0.0
28/07:00am 11.7 9.5 9.4 86 1.2 N 11 13 6 7 1025.7 - 0.0
28/06:30am 12.3 10.3 10.0 86 1.2 N 11 13 6 7 1025.6 - 0.0
28/06:00am 12.6 10.6 10.0 84 1.3 N 11 15 6 8 1025.4 1025.3 0.0
28/05:30am 13.2 10.5 10.4 83 1.5 N 15 17 8 9 1025.6 - 0.0
28/05:00am 13.4 10.8 10.6 83 1.5 N 15 19 8 10 1025.7 - 0.0
28/04:30am 13.6 11.0 10.8 83 1.5 N 15 19 8 10 1025.6 - 0.0
28/04:00am 13.5 11.3 10.9 84 1.4 N 13 17 7 9 1025.2 - 0.0
28/03:30am 13.7 12.3 11.0 84 1.4 N 9 11 5 6 1025.3 - 0.0
28/03:00am 13.9 13.1 11.1 83 1.5 NNW 6 7 3 4 1025.6 1025.5 0.0
28/02:30am 13.8 12.8 11.0 83 1.5 NNW 7 11 4 6 1026.1 - 0.0
28/02:00am 13.6 12.6 11.1 85 1.3 N 7 9 4 5 1026.5 - 0.0
28/01:30am 13.3 11.5 11.0 86 1.2 NE 11 13 6 7 1026.6 - 0.0
28/01:00am 13.5 11.7 10.9 84 1.4 ENE 11 15 6 8 1026.6 - 0.0
28/12:30am 13.7 12.1 10.1 79 1.9 ENE 9 13 5 7 1026.7 - 0.0
28/12:00am 13.0 10.8 9.4 79 1.8 NE 11 13 6 7 1026.9 1026.8 0.0
 
Date/Time
CDT
Temp
°C
App
Temp
°C
Dew
Point
Rel
Hum
%
Delta-T
°C
Wind Press
QNH
hPa
Press
MSL
hPa
Rain
since 9 am
mm
Dir
 
Spd
km/h
Gust
km/h
Spd
kts
Gust
kts
27/11:30pm 14.7 12.3 9.9 73 2.5 SE 13 15 7 8 1027.0 - 0.0
27/11:00pm 15.3 11.7 9.9 70 2.8 SE 19 20 10 11 1027.0 - 0.0
27/10:30pm 15.6 12.2 10.4 71 2.7 SE 19 24 10 13 1027.1 - 0.0
27/10:00pm 15.5 12.8 10.3 71 2.7 SSE 15 20 8 11 1027.1 - 0.0
27/09:30pm 15.2 11.7 10.8 75 2.3 SE 20 24 11 13 1027.2 - 0.0
27/09:00pm 15.4 11.6 11.2 76 2.2 S 22 26 12 14 1027.1 1027.0 0.0
27/08:30pm 15.6 12.1 10.2 70 2.8 SE 19 24 10 13 1027.0 - 0.0
27/08:00pm 15.1 12.2 9.7 70 2.8 S 15 17 8 9 1026.9 - 0.0
27/07:30pm 15.3 12.3 9.4 68 3.0 S 15 19 8 10 1026.9 - 0.0
27/07:00pm 15.6 12.3 9.5 67 3.2 S 17 22 9 12 1026.9 - 0.0
27/06:30pm 15.5 12.1 9.0 65 3.3 S 17 19 9 10 1026.7 - 0.0
27/06:00pm 16.2 12.5 9.6 65 3.4 S 19 24 10 13 1026.6 1026.6 0.0

Other Formats:

Comma delimited format used in spreadsheet applications
http://www.bom.gov.au/fwo/IDS60801/IDS60801.94677.axf

JavaScript Object Notation format (JSON) in row-major order
http://www.bom.gov.au/fwo/IDS60801/IDS60801.94677.json